sat.trackr.live / text

‹ back to catalog

STARLINK-11389 [DTC]

NORAD 62091 · 2024-220D

PAYLOAD ACTIVE UNKNOWN

§ Identity

Operator
Country
US
Launch date
2024-11-25
Launch site
AFETR
Launch vehicle
Mass (kg)
RCS (m²)

Purposes: comms

External: N2YO · Heavens-Above · Gunter

§ Orbital elements

Epoch: 2026-05-25T03:08:02.518080Z

Period
91.67 min
Inclination
43.0012°
Eccentricity
0.0001376
Mean motion
15.70896481 rev/d
Perigee alt
355.4 km
Apogee alt
357.3 km
Semi-major
6,734.5 km
B*
1.4136e-3
RAAN
302.4644°
Arg perigee
300.5161°
Mean anomaly
59.5571°
Rev number
8,697

§ Raw data

STARLINK-11389 [DTC]1 62091U 24220D   26145.13058470  .00185481  00000+0  14136-2 0  99972 62091  43.0012 302.4644 0001376 300.5161  59.5571 15.70896481 86977

JSON: /api/v1/satellites/62091 · /tle

For live sub-satellite position, see the globe view (requires WebGL).

§ Visibility from observer

Set your observer location to see the next 7 days of passes ≥ 10°. The values pass through the URL so the page stays shareable.

No JS? Fill the form by hand. The geolocation button needs JavaScript.